This demonstration page uses our WeatherBlox Daily Observations layout. Learn more.

Left ArrowRight Arrow

Hourly Observations for March 7, 2019

Temp ( °F °C ) Dew Point ( °F °C ) Humidity (%) Winds ( mph kmh ) Pressure ( in mb ) Visibility ( mi km ) Precip ( " mm )
12:51 am 00:51 Clear 53 11.7 25 -3.9 34 34 N N/A 29.92 1013 10 16 N/A
1:51 am 01:51 Clear 50 10 26 -3.3 39 39 E 7 11 29.92 1013 10 16 N/A
2:51 am 02:51 Clear 48 8.9 26 -3.3 42 42 E 3 6 29.91 1013 10 16 N/A
3:51 am 03:51 Clear 47 8.3 26 -3.3 44 44 ESE 3 6 29.90 1013 10 16 N/A
4:51 am 04:51 Clear 47 8.3 27 -2.8 46 46 SE 3 6 29.89 1012 10 16 N/A
5:51 am 05:51 Clear 45 7.2 27 -2.8 49 49 N N/A 29.92 1013 10 16 N/A
6:51 am 06:51 Sunny 46 7.8 28 -2.2 50 50 N N/A 29.94 1014 10 16 N/A
7:51 am 07:51 Sunny 51 10.6 29 -1.7 43 43 NNW 5 7 29.93 1014 10 16 N/A
8:51 am 08:51 Sunny 56 13.3 29 -1.7 36 36 NNW 3 6 29.96 1015 10 16 N/A
9:51 am 09:51 Sunny 64 17.8 25 -3.9 23 23 W 5 7 29.96 1014 10 16 N/A
10:51 am 10:51 Sunny 67 19.4 26 -3.3 21 21 SW 6 9 29.94 1014 10 16 N/A
11:51 am 11:51 Sunny 72 22.2 24 -4.4 17 17 WNW 5 7 29.91 1013 10 16 N/A
12:51 pm 12:51 Sunny 74 23.3 22 -5.6 14 14 WNW 7 11 29.89 1012 10 16 N/A
1:51 pm 13:51 Sunny 74 23.3 24 -4.4 15 15 N N/A 29.87 1011 10 16 N/A
2:51 pm 14:51 Sunny 76 24.4 24 -4.4 14 14 NW 8 13 29.85 1011 10 16 N/A
3:51 pm 15:51 Sunny 74 23.3 25 -3.9 16 16 WNW 12 19 29.85 1011 10 16 N/A
4:51 pm 16:51 Sunny 73 22.8 27 -2.8 18 18 NW 9 15 29.83 1010 10 16 N/A
5:51 pm 17:51 Sunny 70 21.1 28 -2.2 21 21 NW 8 13 29.84 1011 10 16 N/A
6:51 pm 18:51 Clear 64 17.8 29 -1.7 27 27 W 8 13 29.85 1011 10 16 N/A
7:51 pm 19:51 Clear 60 15.6 30 -1.1 32 32 WNW 5 7 29.86 1011 10 16 N/A
8:51 pm 20:51 Clear 59 15 30 -1.1 33 33 N N/A 29.84 1011 10 16 N/A
9:51 pm 21:51 Clear 58 14.4 29 -1.7 33 33 E 7 11 29.83 1010 10 16 N/A
10:51 pm 22:51 Clear 55 12.8 29 -1.7 37 37 NNW 8 13 29.84 1011 10 16 N/A
11:51 pm 23:51 Clear 56 13.3 25 -3.9 30 30 VRB 3 6 29.82 1010 10 16 N/A

Powered by AerisWeather